Regional Weather Roundup
Issued by NWS Columbia, SC

Home | Current Version | Previous Version | Text Only | Print | Product List | Glossary On
Versions: 1 2 3 4 5 6 7 8 9 10 11 12 13 14 15 16 17 18 19 20 21 22 23 24 25 26 27 28 29 30 31 32 33 34 35 36 37 38 39 40 41 42 43 44 45 46 47 48 49 50
000
ASUS42 KCAE 252110
RWRCAE
REGIONAL WEATHER ROUNDUP
NATIONAL WEATHER SERVICE COLUMBIA SC
400 PM EST SUN JAN 25 2015

NOTE: "FAIR" INDICATES FEW OR NO CLOUDS BELOW 12,000 FEET WITH NO
SIGNIFICANT WEATHER AND/OR OBSTRUCTIONS TO VISIBILITY.

NOT ALL STATIONS ARE QUALITY CONTROLLED BY THE NATIONAL
WEATHER SERVICE. USE DATA WITH CAUTION...ESPECIALLY
DEWPOINT OBSERVATIONS.

SCZ001>056-GAZ040-063>065-077-252200-
...UPSTATE SOUTH CAROLINA...

CITY           SKY/WX    TMP DP  RH WIND       PRES   REMARKS
ANDERSON       SUNNY     57  30  35 SW15      29.78F
LIBERTY        CLEAR     56  36  46 MISG      29.76F
SPARTANBURG    SUNNY     59  27  29 SW13      29.76F
CLEMSON        SUNNY     57  28  33 SW9       29.78F
GREENVILLE     SUNNY     57  29  34 SW14      29.78F
GREENWOOD      SUNNY     58  29  33 S12       29.80F
GREER          SUNNY     56  29  35 SW10      29.76F
ROCK HILL      SUNNY     57  31  37 S12G18    29.78F
CHESTER        CLEAR     59  28  31 S7G17     29.80S
LAURENS        CLEAR     55  36  47 SW12G18   29.78F


...CENTRAL SOUTH CAROLINA...

CITY           SKY/WX    TMP DP  RH WIND       PRES   REMARKS
COLUMBIA APT   SUNNY     61  28  28 S13       29.81F
COLUMBIA OWENS SUNNY     61  30  31 SW10      29.82F
DARLINGTON     SUNNY     57  34  41 S10       29.85S
FLORENCE       SUNNY     59  32  36 S10       29.85F
MCENTIRE ANGB  MOSUNNY   61  31  33 S14       29.83F
ORANGEBURG     SUNNY     60  30  32 S12       29.84F
SUMTER SHAW    SUNNY     59  33  37 S9        29.82F
NEWBERRY       CLEAR     57  32  38 SW7       29.82F
AIKEN          FAIR      59  32  36 S10       29.84F
BARNWELL       FAIR      61  32  33 S9        29.85F
CAMDEN         FAIR      57  32  38 SE7       29.83F
LANCASTER      CLEAR     57  28  33 SW14      29.80F
WINNSBORO      CLEAR     59  32  36 S9        29.79F


...EASTERN AND COASTAL SOUTH CAROLINA...

CITY           SKY/WX    TMP DP  RH WIND       PRES   REMARKS
MYRTLE BEACH   SUNNY     52  36  54 S10       29.93S
N MYRTLE BCH   SUNNY     50  38  63 S8        29.91S
CONWAY         FAIR      55  32  41 SE7       29.89F HAZE
MARION         FAIR      57  34  41 S9        29.86F
HARTSVILLE     FAIR      61  25  25 S9        29.84S
FLORENCE       SUNNY     59  32  36 S10       29.85F
DARLINGTON     SUNNY     57  34  41 S10       29.85S
CHARLESTON APT MOSUNNY   57  35  43 S9        29.89F
MOUNT PLEASANT FAIR     N/A N/A N/A SE6       29.90S
WALTERBORO     CLEAR     61  28  29 S12       29.88S
BEAUFORT       SUNNY     56  41  57 S10       29.90S


...EASTERN GEORGIA...

CITY           SKY/WX    TMP DP  RH WIND       PRES   REMARKS
AUGUSTA BUSH F SUNNY     61  28  28 SW13      29.83F
AUGUSTA DANIEL SUNNY     61  28  28 SW9       29.82F
THOMSON        SUNNY     61  34  35 SW8       29.86S
WASHINGTON     FAIR      61  36  39 SW9       29.80F
CLAXTON        FAIR      61  34  36 SW8       29.87F
SYLVANIA       CLEAR     60  34  37 SW8       29.86F
STATESBORO     SUNNY     61  34  36 SW9       29.86F
SAVANNAH       MOSUNNY   62  28  27 SW10      29.89F


...SOUTHERN NORTH CAROLINA...

CITY           SKY/WX    TMP DP  RH WIND       PRES   REMARKS
CHARLOTTE      MOSUNNY   57  29  34 S15       29.78F
MONROE         SUNNY     58  31  35 VRB6      29.78F
WADESBORO      CLEAR     58  31  36 SE9       29.80F
ROCKINGHAM       N/A     56  34  42 SE10      29.82F
RUTHERFORDTON  SUNNY     56  26  31 S14G21    29.75F
ASHEVILLE      SUNNY     51  27  39 S15G22    29.71F

$$


USA.gov is the U.S. government's official web portal to all federal, state and local government web resources and services.